Regional Weather Roundup
Issued by NWS

Home | Current Version | Previous Version | Graphics & Text | Print | Product List | Glossary On
Versions: 1 2 3 4 5 6 7 8 9 10 11 12 13 14 15 16 17 18 19 20 21 22 23 24 25 26 27 28 29 30 31 32 33 34 35 36 37 38 39 40 41 42 43 44 45 46 47 48 49 50
000
ASUS44 KMEG 260410
RWRTN
TENNESSEE HOURLY STATE WEATHER ROUNDUP
NATIONAL WEATHER SERVICE MEMPHIS TN
1000 PM CST SUN JAN 25 2015

TNZ002-004-019-021-049-052-054-088>092-260500-
WEST TENNESSEE

CITY           SKY/WX    TMP DP  RH WIND       PRES   REMARKS
MEMPHIS INTL   CLOUDY    44  35  70 NW17      29.90R
NWS MEMPHIS      N/A     43 N/A N/A MISG        N/A
JACKSON        CLOUDY    43  36  76 NW17G23   29.83R
DYERSBURG      CLOUDY    43  28  56 NW10G21   29.87R
UNION CITY     CLOUDY    39  37  93 NW20      29.82R WCI  30
PARIS          CLOUDY    39  39 100 NW12      29.78R WCI  32
LEXINGTON      CLOUDY    43  41  93 W8        29.78R
SAVANNAH       CLOUDY    43  39  87 NW9       29.82R
$$

TNZ008-025-027-028-033-062-065-066-260500-
NORTH MIDDLE TENNESSEE

CITY           SKY/WX    TMP DP  RH WIND       PRES   REMARKS
NASHVILLE      LGT RAIN  45  41  86 W13G18    29.72R
CLARKSVILLE    LGT RAIN  44  42  93 NW15G22   29.73R FOG
SMYRNA         CLOUDY    46  42  86 NW7       29.73R
COOKEVILLE     CLOUDY    45  43  93 SW6       29.67F
CROSSVILLE     MOCLDY    42  38  85 SW6       29.67F
$$

TNZ061-075-076-078-094-096-097-260500-
SOUTH MIDDLE TENNESSEE

CITY           SKY/WX    TMP DP  RH WIND       PRES   REMARKS
FAYETTEVILLE   PTCLDY    41  39  93 MISG      29.74R
TULLAHOMA      CLEAR     39  37  93 W7        29.73S WCI  34
WINCHESTER     CLOUDY    43  39  87 W6        29.73S
MCMINNVILLE    MOCLDY    43  43 100 SW8       29.70S
COLUMBIA       CLOUDY   N/A N/A N/A W7        29.73S
SHELBYVILLE    MOCLDY    45  43  93 W8        29.73F
$$

TNZ017-018-042-046-047-260500-
NORTHEAST TENNESSEE

CITY           SKY/WX    TMP DP  RH WIND       PRES   REMARKS
TRI CITIES     LGT RAIN  43  36  76 W3        29.69F
ELIZABETHTON   CLOUDY    41  34  75 CALM      29.69F
$$

TNZ012-013-036-069-073-074-260500-
CENTRAL EAST TENNESSEE

CITY           SKY/WX    TMP DP  RH WIND       PRES   REMARKS
KNOXVILLE      LGT RAIN  46  39  76 W14       29.70R
OAK RIDGE      CLOUDY    44  41  89 CALM      29.71R
GATLINBURG     CLOUDY    46  34  61 CALM      29.67S
MORRISTOWN     MOCLDY    45  37  76 CALM      29.69S
$$

TNZ083-085-099-260500-
SOUTHEAST TENNESSEE

CITY           SKY/WX    TMP DP  RH WIND       PRES   REMARKS
CHATTANOOGA    RAIN      47  42  83 NW3       29.72R
$$

SKY/WX REPORTED AS FAIR MEANS FEW OR NO CLOUDS BELOW
12 THOUSAND FEET.




USA.gov is the U.S. government's official web portal to all federal, state and local government web resources and services.